Showing default

MUOS 4, 40887

Orbit data source: Space-Track

MUOS 4, 40887 is a payload satellite owned by SPAWAR Pacific (US) in GEO that was launched on Wed, 02 Sep 2015 UTC via an ATLAS V 551 launch vehicle from the Air Force Eastern Test Range (AFETR). Payload-class satellites include a variety of spacecraft equipped with specific instruments for various scientific and technological missions. These include communications satellites like Starlink; space stations such as the ISS; scientific satellites like the Hubble; Earth observation satellites from companies like Planet Labs, Umbra, and HawkEye 360; GPS; miniature CubeSats for education and research; and military/defense satellites.

Not visible in the next 10 days
Identifier
40887, 2015-044A
Orbit
GEO
Country
Flag of USUS
Related business
Manufacturer
LMSS/LMCSS
Mission
Operational Defense Communications
Bus & Motor
A2100, BT-4
Mass
6,800 kg wet, 3,800 kg dry
Launch date (UTC)
2015-09-02 (11 years ago)
Launch vehicle
ATLAS V 551
Launch site
Air Force Eastern Test Range (AFETR)
Object type
Payload
Rocket body
Debris
Shape & HBR
Box + 2 Pan + 1 Dish, 14.3 m
Radar Cross Section
71.298 m², Large (>1 m²)

Expand to show TLE details & history
Last TLE update: 2 days ago

TLE from 2 days ago
0 MUOS 4
1 40887U 15044A   26171.19299041 -.00000099  00000-0  00000-0 0  9992
2 40887   4.3362  42.2726 0057873   2.3796   8.2093  1.00271545 39590
Epoch: 2026-06-20T04:37Z
TLE epoch observation values (Epoch: 2026-06-20T04:37:54.371Z)
Latitude
0.81669°
Longitude
75.04943°
Altitude
35,544.474 km
Speed
3.092 km/s
True Right ascension
03h 31m 44s
True Declination
0° 48' 57"
Sunlit
Object was in daylight at epoch
Visualization orbit readout
Latitude
Unknown
Longitude
Unknown
Altitude
Unknown
Speed
Unknown
Apparent Right ascension
Unknown
Apparent Declination
Unknown
Sunlit
N/A
Visualization observer readout
Local Sidereal Time
21:34:32
Azimuth
Unknown
Elevation
Unknown
Doppler factor
Unknown
Orbital elements
Apogee altitude
36,031.75 km
Perigee altitude
35,543.697 km
Semi-major axis
42,165.861 km
Eccentricity
0.00579
Inclination
4.3362°
RAAN
42.2726°
Arg. of periapsis
2.3796°
True anomaly
8.30468°
Mean anomaly
8.2093°
Eccentric anomaly
8.25692°
Mean motion
0.25067 °/min
Orbital period
1,436.15 mins
BSTAR
0
Loading maneuver chart data...
Computing Atmospheric mass density...
Loading historical data...
Loading historical data...
Loading historical data...
Loading historical data...
Loading historical data...
Loading historical data...
Loading historical data...
Other satellites on launch #44 in the year 2015 (2015-09-02 UTC)

Documentation

Showing up to 5 results
|